Terminal Aerodrome Forecast
Issued by NWS Cleveland, OH

Home | Current Version | Previous Version | Text Only | Print | Product List | Glossary Off
Versions: 1 2 3 4 5 6 7 8 9 10 11 12 13 14 15

000
FTUS41 KCLE 150538
TAFYNG
TAF
KYNG 150538Z 1506/1606 32004KT P6SM SCT250
     FM151500 VRB03KT P6SM BKN250=

USA.gov is the U.S. government's official web portal to all federal, state and local government web resources and services.